TITAN 3C TRANSTAGE DEB, 26779

Orbit data source: Space-Track

TITAN 3C TRANSTAGE DEB, 26779 is space debris in HEO originally from a launch on Tue, 21 Dec 1965 UTC launched from the Air Force Eastern Test Range (AFETR). Debris objects in space refer to the collection of defunct objects orbiting the Earth. Examples of debris include non-operational satellites, rocket bodies, and fragments generated from explosions, collisions, or faulty payload assembly.

Loading next visibility...
Identifier
26779, 1965-108AX
Orbit
HEO
Country
Flag of USUS
Related business
Manufacturer
Unknown
Mission
Spacecraft
Bus & Motor
Unknown
Mass
Unknown
Launch date (UTC)
1965-12-21 (60 years ago)
Launch vehicle
Unknown
Launch site
Air Force Eastern Test Range (AFETR)
Object type
Payload
Rocket body
Debris
Shape & HBR
Unknown shape, 0.2 m
Radar Cross Section
Small (<0.1 m²)

Expand to show TLE details & history
Last TLE update: 1 day ago

TLE from 1 day ago
0 TITAN 3C TRANSTAGE DEB
1 26779U 65108AX  25295.54387814  .00000089  00000-0  71007-2 0  9998
2 26779  26.3991 166.4865 6758258  46.8279 117.8276  2.60300669223928
Epoch: 2025-10-22T13:03Z
TLE epoch observation values (Epoch: 2025-10-22T13:03:11.071Z)
Latitude
-12.66433°
Longitude
146.40667°
Altitude
27,810.552 km
Speed
2.337 km/s
True Right ascension
00h 53m 40s
True Declination
-12° 38' 56"
Sunlit
Object was in daylight at epoch
Visualization orbit readout
Latitude
Unknown
Longitude
Unknown
Altitude
Unknown
Speed
Unknown
Apparent Right ascension
Unknown
Apparent Declination
Unknown
Sunlit
N/A
Visualization observer readout
Local Sidereal Time
10:26:29
Azimuth
Unknown
Elevation
Unknown
Doppler factor
Unknown
Orbital elements
Apogee altitude
31,037.076 km
Perigee altitude
859.517 km
Semi-major axis
22,326.434 km
Eccentricity
0.67583
Inclination
26.3991°
RAAN
166.4865°
Arg. of periapsis
46.8279°
True anomaly
162.67235°
Mean anomaly
117.8276°
Eccentric anomaly
141.78275°
Mean motion
0.6506 °/min
Orbital period
553.34 mins
BSTAR
0.0071007
Loading maneuver chart data...
Computing Atmospheric mass density...

Documentation

Showing up to 5 results
|